Date String (YYYY-MM-DD hh:mm:ss) UTC,Instrument flags,Ambient pressure (hPa),Sample flow (lpm),Bypass flow (lpm),Sample temperature (°C),Ambient temperature (°C),ASC tube jacket temperature (°C),LED temperature (°C),Box temperature (°C),Sample RH (%),Span deviation,Mass concentration (μg/m³),Mass concentration (μg/m³),Mass concentration (μg/m³)
DateTimeUTC,F1_M11,P_M11,Q1_M11,Q2_M11,T1_M11,T2_M11,T3_M11,T4_M11,T5_M11,U1_M11,ZSPAN_M11,X0_M11,X2_M11,X1_M11
2021-09-13 21:00:00,,0825.6,5.00,0.00,29.2,26.4,00.0,38.4,30.8,25.4,0000.0,0017.61,0004.25,0002.91
2021-09-13 21:01:00,,0825.6,5.00,0.00,29.2,26.9,00.0,38.3,30.9,25.4,0000.0,0018.25,0004.22,0002.88
2021-09-13 21:02:00,,0825.7,5.00,0.00,29.2,27.3,00.0,38.3,31.0,25.6,0000.0,0018.25,0004.21,0002.87
2021-09-13 21:03:00,,0825.6,5.01,0.00,29.3,27.7,00.0,38.3,31.1,25.5,0000.0,0018.19,0004.24,0002.87
2021-09-13 21:04:00,,0825.7,5.00,0.00,29.3,28.0,00.0,38.3,31.2,25.5,0000.0,0019.10,0004.21,0002.86
2021-09-13 21:05:00,,0825.6,5.00,0.00,29.4,28.3,00.0,38.3,31.3,25.4,0000.0,0018.71,0004.19,0002.86
2021-09-13 21:06:00,,0825.6,5.00,0.00,29.4,28.5,00.0,38.3,31.4,25.4,0000.0,0019.23,0004.20,0002.85
2021-09-13 21:07:00,,0825.6,4.99,0.00,29.5,28.5,00.0,38.4,31.4,25.3,0000.0,0019.03,0004.17,0002.84
2021-09-13 21:08:00,,0825.5,5.00,0.00,29.4,27.1,00.0,38.4,31.0,25.4,0000.0,0020.01,0004.21,0002.84
2021-09-13 21:09:00,,0825.5,4.99,0.00,29.3,25.8,00.0,38.4,30.6,25.9,0000.0,0020.37,0004.29,0002.84
2021-09-13 21:10:00,,0825.5,5.00,0.00,29.2,26.0,00.0,38.4,30.6,26.1,0000.0,0020.35,0004.32,0002.88
2021-09-13 21:11:00,,0825.6,5.02,0.00,29.2,26.4,00.0,38.3,30.8,26.2,0000.0,0020.45,0004.36,0002.90
2021-09-13 21:12:00,,0825.6,4.99,0.00,29.2,26.9,00.0,38.3,30.9,25.8,0000.0,0020.49,0004.40,0002.91
2021-09-13 21:13:00,,0825.6,4.99,0.00,29.2,27.3,00.0,38.3,31.0,25.6,0000.0,0020.93,0004.46,0002.94
2021-09-13 21:14:00,,0825.6,4.99,0.00,29.2,27.7,00.0,38.3,31.1,25.8,0000.0,0021.28,0004.50,0002.94
2021-09-13 21:15:00,,0825.6,5.02,0.00,29.3,28.0,00.0,38.3,31.2,25.7,0000.0,0020.29,0004.57,0002.94
2021-09-13 21:16:00,,0825.6,4.99,0.00,29.4,28.3,00.0,38.3,31.3,25.2,0000.0,0020.14,0004.59,0002.94
2021-09-13 21:17:00,,0825.5,5.00,0.00,29.4,28.5,00.0,38.3,31.3,25.1,0000.0,0020.89,0004.61,0002.96
2021-09-13 21:18:00,,0825.6,5.00,0.00,29.5,28.7,00.0,38.4,31.4,24.8,0000.0,0020.28,0004.64,0002.98
2021-09-13 21:19:00,,0825.5,4.99,0.00,29.5,28.8,00.0,38.4,31.4,24.7,0000.0,0019.21,0004.63,0003.00
2021-09-13 21:20:00,,0825.5,5.01,0.00,29.5,27.7,00.0,38.4,31.2,24.9,0000.0,0019.37,0004.61,0002.99
2021-09-13 21:21:00,,0825.4,5.00,0.00,29.4,26.1,00.0,38.4,30.7,24.9,0000.0,0019.54,0004.65,0003.00
2021-09-13 21:22:00,,0825.5,5.00,0.00,29.3,26.0,00.0,38.4,30.7,25.1,0000.0,0018.75,0004.63,0002.99
2021-09-13 21:23:00,,0825.4,4.99,0.00,29.2,26.4,00.0,38.4,30.8,25.1,0000.0,0017.91,0004.60,0003.00
2021-09-13 21:24:00,,0825.5,5.00,0.00,29.2,26.9,00.0,38.3,30.9,25.6,0000.0,0016.74,0004.53,0002.98
2021-09-13 21:25:00,,0825.4,5.01,0.00,29.2,27.3,00.0,38.3,31.0,25.5,0000.0,0016.68,0004.54,0003.00
2021-09-13 21:26:00,,0825.4,4.99,0.00,29.3,27.7,00.0,38.3,31.1,25.8,0000.0,0016.40,0004.47,0003.00
2021-09-13 21:27:00,,0825.5,5.00,0.00,29.3,28.0,00.0,38.3,31.2,25.9,0000.0,0017.54,0004.43,0003.00
2021-09-13 21:28:00,,0825.5,5.00,0.00,29.4,28.3,00.0,38.3,31.3,25.0,0000.0,0016.51,0004.39,0003.00
2021-09-13 21:29:00,,0825.5,4.98,0.00,29.4,28.5,00.0,38.4,31.3,25.3,0000.0,0017.50,0004.39,0003.00
2021-09-13 21:30:00,,0825.5,5.00,0.00,29.5,28.6,00.0,38.4,31.4,25.0,0000.0,0019.22,0004.41,0003.01
2021-09-13 21:31:00,,0825.5,5.01,0.00,29.6,28.8,00.0,38.4,31.5,24.5,0000.0,0019.55,0004.43,0003.03
2021-09-13 21:32:00,,0825.5,4.99,0.00,29.6,28.2,00.0,38.4,31.3,23.8,0000.0,0019.17,0004.40,0003.05
2021-09-13 21:33:00,,0825.5,5.00,0.00,29.4,26.4,00.0,38.4,30.8,23.9,0000.0,0019.51,0004.44,0003.05
2021-09-13 21:34:00,,0825.5,5.00,0.00,29.3,25.8,00.0,38.4,30.7,24.4,0000.0,0020.47,0004.46,0003.08
2021-09-13 21:35:00,,0825.6,5.01,0.00,29.3,26.1,00.0,38.4,30.8,24.7,0000.0,0021.25,0004.52,0003.10
2021-09-13 21:36:00,,0825.5,4.99,0.00,29.2,26.6,00.0,38.4,30.8,24.9,0000.0,0021.12,0004.50,0003.10
2021-09-13 21:37:00,,0825.5,5.00,0.00,29.2,27.1,00.0,38.3,30.9,24.8,0000.0,0021.55,0004.54,0003.12
2021-09-13 21:38:00,,0825.5,5.01,0.00,29.3,27.5,00.0,38.3,31.0,24.4,0000.0,0020.67,0004.58,0003.13
2021-09-13 21:39:00,,0825.5,4.99,0.00,29.3,27.8,00.0,38.3,31.1,24.4,0000.0,0020.47,0004.58,0003.13
2021-09-13 21:40:00,,0825.5,5.01,0.00,29.3,28.1,00.0,38.3,31.2,24.6,0000.0,0019.82,0004.61,0003.13
2021-09-13 21:41:00,,0825.5,4.98,0.00,29.4,28.3,00.0,38.4,31.3,24.4,0000.0,0019.51,0004.67,0003.14
2021-09-13 21:42:00,,0825.5,5.01,0.00,29.5,28.5,00.0,38.4,31.4,24.3,0000.0,0018.93,0004.62,0003.14
2021-09-13 21:43:00,,0825.5,5.00,0.00,29.5,28.7,00.0,38.4,31.5,24.2,0000.0,0018.24,0004.59,0003.13
2021-09-13 21:44:00,,0825.5,5.00,0.00,29.6,28.9,00.0,38.5,31.5,24.0,0000.0,0018.22,0004.59,0003.14
2021-09-13 21:45:00,,0825.5,5.00,0.00,29.6,27.8,00.0,38.5,31.3,23.9,0000.0,0017.26,0004.61,0003.14
2021-09-13 21:46:00,,0825.5,5.00,0.00,29.4,26.2,00.0,38.5,30.8,24.1,0000.0,0017.35,0004.62,0003.14
2021-09-13 21:47:00,,0825.5,5.00,0.00,29.3,25.9,00.0,38.4,30.8,24.5,0000.0,0017.32,0004.58,0003.13
2021-09-13 21:48:00,,0825.5,5.01,0.00,29.3,26.3,00.0,38.4,30.8,24.6,0000.0,0017.91,0004.64,0003.14
2021-09-13 21:49:00,,0825.4,5.00,0.00,29.3,26.8,00.0,38.4,30.9,24.6,0000.0,0018.24,0004.63,0003.14
2021-09-13 21:50:00,,0825.4,5.00,0.00,29.3,27.2,00.0,38.4,31.0,24.6,0000.0,0018.15,0004.63,0003.14
2021-09-13 21:51:00,,0825.4,5.01,0.00,29.3,27.6,00.0,38.4,31.1,24.9,0000.0,0017.85,0004.61,0003.15
2021-09-13 21:52:00,,0825.5,4.99,0.00,29.3,27.9,00.0,38.4,31.2,25.0,0000.0,0016.50,0004.54,0003.15
2021-09-13 21:53:00,,0825.5,5.00,0.00,29.4,28.2,00.0,38.4,31.3,24.8,0000.0,0016.07,0004.56,0003.15
2021-09-13 21:54:00,,0825.5,5.00,0.00,29.5,28.4,00.0,38.4,31.3,25.0,0000.0,0017.22,0004.62,0003.15
2021-09-13 21:55:00,,0825.4,5.00,0.00,29.5,28.6,00.0,38.4,31.4,25.3,0000.0,0017.46,0004.61,0003.15
2021-09-13 21:56:00,,0825.4,4.99,0.00,29.6,28.8,00.0,38.5,31.5,24.8,0000.0,0018.01,0004.63,0003.14
2021-09-13 21:57:00,,0825.4,5.00,0.00,29.6,28.3,00.0,38.5,31.4,24.4,0000.0,0017.34,0004.64,0003.14
2021-09-13 21:58:00,,0825.4,4.99,0.00,29.5,26.6,00.0,38.5,31.0,24.4,0000.0,0017.50,0004.59,0003.14
2021-09-13 21:59:00,,0825.4,5.00,0.00,29.3,25.9,00.0,38.5,30.7,24.8,0000.0,0017.26,0004.50,0003.13
